Simultaneous Nadir Overpasses (SNOs) Predictions

Prediction of SNOs near US between AQUA and NPP Satellite Orbit:

Table of predicted SNOs near US for the next 10.0 days since TLE Epoch: 6/16/2022
Index Date (AQUA) Time (AQUA) AQUA Lat,Lon Date (NPP) Time (NPP) NPP Lat,Lon Distance(km) Time Diff (sec)
1 06/17/2022 18:22:54 49.96, -80.94 06/17/2022 18:16:36 49.58, -83.16 165.01 378
2 06/17/2022 20:01:46 49.94,-105.65 06/17/2022 19:58:04 49.46,-108.49 210.69 222
3 06/20/2022 09:28:48 24.31,-113.79 06/20/2022 09:21:39 24.53,-115.09 133.88 429
4 06/23/2022 06:34:57 47.40, -65.03 06/23/2022 06:36:24 48.00, -68.00 232.65 87
5 06/25/2022 19:10:46 49.95, -92.87 06/25/2022 19:07:28 49.47, -95.84 220.11 198
